Regional Weather Roundup
Issued by NWS Albany, NY

Home | Current Version | Previous Version | Graphics & Text | Print | Product List | Glossary Off
Versions: 1 2 3 4 5 6 7 8 9 10 11 12 13 14 15 16 17 18 19 20 21 22 23 24 25 26 27 28 29 30 31 32 33 34 35 36 37 38 39 40 41 42 43 44 45 46 47 48 49 50

908
ASUS41 KALY 181910
RWRALY

NEW YORK STATE HOURLY WEATHER ROUNDUP
NATIONAL WEATHER SERVICE ALBANY NY
200 PM EST SAT FEB 18 2017

NOTE: "FAIR" INDICATES FEW OR NO CLOUDS BELOW 12,000 FEET WITH NO
SIGNIFICANT WEATHER AND/OR NO OBSTRUCTIONS TO VISIBILITY.

NYZ032-033-038>043-046>054-057>066-NYZ062>081-082-084-182000-
EAST


CITY           SKY/WX    TMP DP  RH WIND       PRES   REMARKS
ALBANY         MOSUNNY   47  23  38 S15       29.60F
GLENS FALLS    SUNNY     45  23  42 S13       29.56F
POUGHKEEPSIE   SUNNY     52  28  39 SW8       29.63F
NEWBURGH       SUNNY     52  30  43 SW12G17   29.66F
MONTGOMERY     SUNNY     49  29  46 SW12      29.63F
WHITE PLAINS   SUNNY     56  28  34 SW9       29.66F
ISLIP          MOSUNNY   48  37  65 S12       29.69F
NEW YORK CITY  MOSUNNY   61  31  32 SW15      29.68F
CENTRAL PARK   SUNNY     60  31  33 VRB3G20   29.71F
$$

NYZ005>009-017-018-044>046-055-056-182000-
CENTRAL


CITY           SKY/WX    TMP DP  RH WIND       PRES   REMARKS
FULTON         SUNNY     56  34  43 S15       29.52F
SYRACUSE       MOSUNNY   55  32  41 SW10      29.53F
ROME           SUNNY     52  30  43 CALM      29.56F
ELMIRA         CLOUDY    67  34  29 W16G22    29.58F
BINGHAMTON     SUNNY     52  31  44 SW9       29.59F
MONTICELLO     SUNNY     54  32  43 W6        29.64F
$$

NYZ026>034-041>043-087-182000-
NORTH


CITY           SKY/WX    TMP DP  RH WIND       PRES   REMARKS
WATERTOWN      SUNNY     53  34  48 S15G24    29.47F
FORT DRUM      NOT AVBL
OGDENSBURG     FAIR      53  35  50 SW20G33   29.41F
MASSENA        SUNNY     51  34  52 SW21G33   29.40F
SARANAC LAKE   LGT RAIN  48  36  63 SW20G28   29.42F
PLATTSBURGH    SUNNY     41  23  48 SE14      29.43F
$$

NYZ001>004-010>016-019>021-085-182000-
WEST


CITY           SKY/WX    TMP DP  RH WIND       PRES   REMARKS
NIAGARA FALLS  SUNNY     53  36  52 SW22G31   29.57S
BUFFALO        MOSUNNY   55  36  48 W28G37    29.58S
DUNKIRK        CLOUDY    59  37  44 SW20G33   29.60F
JAMESTOWN        N/A     55  34  44 SW15G21   29.64F
WELLSVILLE     SUNNY     62  32  32 W21G33    29.62F
ROCHESTER      MOSUNNY   63  37  38 W22G29    29.51F
PENN YAN       SUNNY     64  34  32 SW14G24   29.56F
$$

             KEY
       WCI = WIND CHILL INDEX
       VSB = VISIBILITY
       HX  = HEAT INDEX
$$




USA.gov is the U.S. government's official web portal to all federal, state and local government web resources and services.